When you browse on this site, cookies collect data to enhance your experience and personalize the content and advertising you see.
Visit our Privacy Policy to learn more. By continuing to use the site, you agree to this use of cookies and data.
  • în România
  • Lista ţărilor
  • Pe 7 zile
  • Temperatura apei
  • Hartă satelitară
  • Meteo pe hartă
  • Widget-uri
  • user-avatar
    Intrare

    Meteo pe oră la Pleven

    Astăzi, 19 Iunie, Miercuri

    Timp Temperatura Precipitaţii Vânt Presiune Umiditate
    00:00 +21°C° 0.1 mm 1 m/s 745 mmHg 86%
    01:00 +21°C° 0.1 mm 1 m/s 745 mmHg 86%
    02:00 +20°C° 0 mm 1 m/s 745 mmHg 85%
    03:00 +20°C° 0.3 mm 1 m/s 745 mmHg 86%
    04:00 +20°C° 0.3 mm 1 m/s 745 mmHg 86%
    05:00 +17°C° 0.3 mm 0 m/s 744 mmHg 87%
    06:00 +19°C° 0 mm 0 m/s 744 mmHg 84%
    07:00 +20°C° 0 mm 0 m/s 745 mmHg 81%
    08:00 +24°C° 0 mm 1 m/s 745 mmHg 76%
    09:00 +25°C° 0.5 mm 1 m/s 745 mmHg 72%
    10:00 +26°C° 0.5 mm 2 m/s 745 mmHg 68%
    11:00 +28°C° 0.5 mm 3 m/s 745 mmHg 64%
    12:00 +28°C° 0.1 mm 3 m/s 744 mmHg 59%
    13:00 +29°C° 0.1 mm 3 m/s 744 mmHg 53%
    14:00 +29°C° 0.1 mm 3 m/s 744 mmHg 47%
    15:00 +29°C° 0 mm 3 m/s 743 mmHg 50%
    16:00 +29°C° 0 mm 3 m/s 743 mmHg 52%
    17:00 +29°C° 0 mm 3 m/s 743 mmHg 54%
    18:00 +27°C° 0 mm 2 m/s 743 mmHg 61%
    19:00 +25°C° 0 mm 2 m/s 743 mmHg 68%
    20:00 +23°C° 0 mm 1 m/s 743 mmHg 75%
    21:00 +23°C° 0 mm 1 m/s 743 mmHg 76%
    22:00 +22°C° 0 mm 1 m/s 743 mmHg 77%
    23:00 +21°C° 0 mm 1 m/s 744 mmHg 78%

    Mâine, 20 Iunie, Joi

    Timp Temperatura Precipitaţii Vânt Presiune Umiditate
    00:00 +21°C° 0 mm 1 m/s 744 mmHg 79%
    01:00 +20°C° 0 mm 1 m/s 743 mmHg 79%
    02:00 +20°C° 0 mm 1 m/s 743 mmHg 80%
    03:00 +20°C° 0 mm 1 m/s 743 mmHg 80%
    04:00 +19°C° 0 mm 1 m/s 743 mmHg 80%
    05:00 +19°C° 0 mm 1 m/s 743 mmHg 80%
    06:00 +21°C° 0 mm 1 m/s 743 mmHg 76%
    07:00 +23°C° 0 mm 1 m/s 743 mmHg 72%
    08:00 +25°C° 0 mm 1 m/s 743 mmHg 68%
    09:00 +26°C° 0.1 mm 1 m/s 743 mmHg 64%
    10:00 +27°C° 0.1 mm 1 m/s 743 mmHg 60%
    11:00 +29°C° 0.1 mm 1 m/s 743 mmHg 56%
    12:00 +29°C° 0 mm 2 m/s 743 mmHg 54%
    13:00 +30°C° 0 mm 2 m/s 743 mmHg 53%
    14:00 +30°C° 0 mm 2 m/s 743 mmHg 51%
    15:00 +30°C° 0.1 mm 2 m/s 743 mmHg 53%
    16:00 +30°C° 0.1 mm 2 m/s 742 mmHg 55%
    17:00 +29°C° 0.1 mm 2 m/s 742 mmHg 56%
    18:00 +28°C° 0.1 mm 1 m/s 742 mmHg 62%
    19:00 +26°C° 0.1 mm 1 m/s 742 mmHg 69%
    20:00 +24°C° 0.1 mm 1 m/s 743 mmHg 75%
    21:00 +23°C° 0.2 mm 1 m/s 743 mmHg 77%
    22:00 +22°C° 0.2 mm 1 m/s 743 mmHg 79%
    23:00 +21°C° 0.2 mm 1 m/s 743 mmHg 81%

    Poimâine, 21 Iunie, Vineri

    Timp Temperatura Precipitaţii Vânt Presiune Umiditate
    00:00 +21°C° 0.1 mm 1 m/s 743 mmHg 82%
    01:00 +21°C° 0.1 mm 1 m/s 743 mmHg 83%
    02:00 +20°C° 0.1 mm 1 m/s 743 mmHg 83%
    03:00 +20°C° 0 mm 1 m/s 743 mmHg 84%
    04:00 +20°C° 0 mm 1 m/s 743 mmHg 84%
    05:00 +20°C° 0 mm 1 m/s 743 mmHg 85%
    06:00 +21°C° 0 mm 1 m/s 744 mmHg 81%
    07:00 +23°C° 0 mm 1 m/s 744 mmHg 77%
    08:00 +25°C° 0 mm 1 m/s 744 mmHg 73%
    09:00 +26°C° 0.7 mm 1 m/s 744 mmHg 70%
    10:00 +27°C° 0.7 mm 1 m/s 744 mmHg 67%
    11:00 +28°C° 0.7 mm 1 m/s 744 mmHg 64%
    12:00 +29°C° 0.8 mm 2 m/s 744 mmHg 62%
    13:00 +29°C° 0.8 mm 2 m/s 744 mmHg 59%
    14:00 +30°C° 0.8 mm 2 m/s 744 mmHg 57%
    15:00 +29°C° 0.8 mm 2 m/s 744 mmHg 62%
    16:00 +28°C° 0.8 mm 2 m/s 744 mmHg 66%
    17:00 +27°C° 0.8 mm 1 m/s 743 mmHg 71%
    18:00 +26°C° 0.4 mm 1 m/s 743 mmHg 75%
    19:00 +24°C° 0.4 mm 1 m/s 744 mmHg 78%
    20:00 +23°C° 0.4 mm 1 m/s 744 mmHg 82%
    21:00 +22°C° 0.1 mm 1 m/s 744 mmHg 82%
    22:00 +21°C° 0.1 mm 1 m/s 744 mmHg 82%
    23:00 +21°C° 0.1 mm 1 m/s 745 mmHg 83%

    22 Iunie, Sâmbătă

    Timp Temperatura Precipitaţii Vânt Presiune Umiditate
    00:00 +21°C° 0 mm 1 m/s 745 mmHg 84%
    01:00 +20°C° 0 mm 1 m/s 745 mmHg 85%
    02:00 +20°C° 0 mm 1 m/s 745 mmHg 86%
    03:00 +20°C° 0 mm 1 m/s 745 mmHg 87%
    04:00 +19°C° 0 mm 1 m/s 745 mmHg 89%
    05:00 +19°C° 0 mm 1 m/s 745 mmHg 90%
    06:00 +21°C° 0 mm 1 m/s 745 mmHg 87%
    07:00 +22°C° 0 mm 1 m/s 745 mmHg 84%
    08:00 +24°C° 0 mm 1 m/s 746 mmHg 80%
    09:00 +25°C° 0.1 mm 1 m/s 746 mmHg 75%
    10:00 +27°C° 0.1 mm 1 m/s 745 mmHg 70%
    11:00 +28°C° 0.1 mm 1 m/s 745 mmHg 65%
    12:00 +27°C° 0.3 mm 0 m/s 745 mmHg 62%
    13:00 +28°C° 0.3 mm 0 m/s 745 mmHg 60%
    14:00 +28°C° 0.3 mm 0 m/s 745 mmHg 58%
    15:00 +28°C° 0.1 mm 0 m/s 745 mmHg 57%
    16:00 +28°C° 0.1 mm 0 m/s 744 mmHg 57%
    17:00 +30°C° 0.1 mm 1 m/s 744 mmHg 57%
    18:00 +28°C° 0 mm 1 m/s 744 mmHg 62%
    19:00 +27°C° 0 mm 1 m/s 744 mmHg 67%
    20:00 +25°C° 0 mm 1 m/s 744 mmHg 72%
    21:00 +24°C° 0 mm 1 m/s 744 mmHg 74%
    22:00 +24°C° 0 mm 1 m/s 744 mmHg 75%
    23:00 +23°C° 0 mm 1 m/s 744 mmHg 77%

    23 Iunie, Duminică

    Timp Temperatura Precipitaţii Vânt Presiune Umiditate
    00:00 +22°C° 0 mm 1 m/s 744 mmHg 77%
    01:00 +22°C° 0 mm 1 m/s 744 mmHg 78%
    02:00 +22°C° 0 mm 1 m/s 744 mmHg 78%
    03:00 +21°C° 0 mm 2 m/s 744 mmHg 71%
    04:00 +22°C° 0 mm 1 m/s 744 mmHg 72%
    05:00 +22°C° 0 mm 1 m/s 744 mmHg 73%
    06:00 +24°C° 0 mm 1 m/s 745 mmHg 69%
    07:00 +26°C° 0 mm 1 m/s 745 mmHg 65%
    08:00 +28°C° 0 mm 1 m/s 745 mmHg 61%
    09:00 +29°C° 0 mm 1 m/s 745 mmHg 57%
    10:00 +31°C° 0 mm 1 m/s 745 mmHg 52%
    11:00 +33°C° 0 mm 1 m/s 745 mmHg 47%
    12:00 +33°C° 0 mm 1 m/s 745 mmHg 45%
    13:00 +34°C° 0 mm 1 m/s 744 mmHg 42%
    14:00 +34°C° 0 mm 1 m/s 744 mmHg 39%
    15:00 +34°C° 0 mm 1 m/s 744 mmHg 41%
    16:00 +34°C° 0 mm 1 m/s 744 mmHg 42%
    17:00 +34°C° 0 mm 1 m/s 744 mmHg 44%
    18:00 +32°C° 0 mm 1 m/s 744 mmHg 50%
    19:00 +30°C° 0 mm 1 m/s 744 mmHg 56%
    20:00 +28°C° 0 mm 1 m/s 744 mmHg 62%
    21:00 +26°C° 0.8 mm 1 m/s 745 mmHg 70%
    22:00 +25°C° 0.8 mm 2 m/s 745 mmHg 77%
    23:00 +23°C° 0.8 mm 2 m/s 745 mmHg 85%

    24 Iunie, Luni

    Timp Temperatura Precipitaţii Vânt Presiune Umiditate
    00:00 +23°C° 0.4 mm 2 m/s 745 mmHg 86%
    01:00 +23°C° 0.4 mm 2 m/s 746 mmHg 88%
    02:00 +21°C° 0.4 mm 3 m/s 746 mmHg 89%
    03:00 +21°C° 0 mm 2 m/s 746 mmHg 88%
    04:00 +21°C° 0 mm 2 m/s 746 mmHg 88%
    05:00 +21°C° 0 mm 2 m/s 746 mmHg 87%
    06:00 +22°C° 0 mm 3 m/s 746 mmHg 82%
    07:00 +25°C° 0 mm 4 m/s 746 mmHg 78%
    08:00 +26°C° 0 mm 4 m/s 746 mmHg 73%
    09:00 +27°C° 0 mm 5 m/s 746 mmHg 67%
    10:00 +29°C° 0 mm 5 m/s 746 mmHg 62%
    11:00 +30°C° 0 mm 5 m/s 746 mmHg 57%
    12:00 +30°C° 0 mm 6 m/s 746 mmHg 53%
    13:00 +32°C° 0 mm 6 m/s 746 mmHg 49%
    14:00 +33°C° 0 mm 6 m/s 746 mmHg 45%
    15:00 +32°C° 0 mm 6 m/s 746 mmHg 48%
    16:00 +32°C° 0 mm 5 m/s 746 mmHg 50%
    17:00 +30°C° 0 mm 5 m/s 746 mmHg 53%
    18:00 +28°C° 0 mm 5 m/s 746 mmHg 57%
    19:00 +27°C° 0 mm 5 m/s 746 mmHg 61%
    20:00 +25°C° 0 mm 4 m/s 746 mmHg 65%
    21:00 +23°C° 0 mm 4 m/s 747 mmHg 67%
    22:00 +22°C° 0 mm 4 m/s 747 mmHg 69%
    23:00 +22°C° 0 mm 4 m/s 747 mmHg 71%
    Arată mai mult